Regional Weather Roundup
Issued by NWS State College, PA

Home | Current Version | Previous Version | Text Only | Print | Product List | Glossary On
Versions: 1 2 3 4 5 6 7 8 9 10 11 12 13 14 15 16 17 18 19 20 21 22 23 24 25 26 27 28 29 30 31 32 33 34 35 36 37 38 39 40 41 42 43 44 45 46 47 48 49 50
000
ASUS41 KCTP 281710
RWRCTP

REGIONAL WEATHER ROUNDUP
NATIONAL WEATHER SERVICE STATE COLLEGE PA
1200 PM EST SAT FEB 28 2015

Note: "fair" indicates few or no clouds below 12,000 feet with no
significant weather and/or obstructions to visibility.

* = STATION THAT DOES NOT REPORT PRECIPITATION /E.G. RAIN...SNOW...ETC/
    THUNDER OR FOG.

PAZ002>004-007>009-013>016-020>023-029>032-281800-
WESTERN PENNSYLVANIA

CITY           SKY/WX    TMP DP  RH WIND       PRES   REMARKS
ERIE           SUNNY     19   1  45 NW5       30.78F WCI  12
MEADVILLE        N/A     15  -2  46 CALM      30.71S
FRANKLIN*      SUNNY     14  -2  48 CALM      30.72F
NEW CASTLE     FAIR      16  -3  42 CALM      30.76F
BEAVER COUNTY  SUNNY     19   0  42 SE3       30.73F
BUTLER*        SUNNY     16  -2  45 SE6       30.76F WCI   7
PITTSBURGH INT MOSUNNY   19   2  47 E7        30.73F WCI  10
PITTSBURGH     SUNNY     18  -4  37 VRB6      30.72F WCI  10
INDIANA*       SUNNY     18  -4  38 CALM      30.76F
LATROBE        MOSUNNY   19   0  42 CALM      30.75F
WASHINGTON CO* SUNNY     19   3  49 CALM      30.74F
$$

PAZ004>006-010>012-017>019-024>028-033>037-041-042-045-046-049>053-281800-
CENTRAL PENNSYLVANIA

CITY           SKY/WX    TMP DP  RH WIND       PRES   REMARKS
BRADFORD       SUNNY     16  -6  37 E3        30.64S
DUBOIS         SUNNY     15  -4  42 VRB6      30.68S WCI   6
CLEARFIELD     FLURRIES  17  -5  37 CALM      30.72F
JOHNSTOWN      SUNNY     16  -2  45 CALM      30.63S
ALTOONA        SUNNY     17  -6  35 CALM      30.73F
STATE COLLEGE  SUNNY     18  -4  38 CALM      30.75F
WILLIAMSPORT   SUNNY     32  -2  23 CALM      30.82F
SELINSGROVE    SUNNY     19   1  45 CALM      30.82F
FT INDIANTOWN  SUNNY     21  -3  35 S7        30.81F WCI  12
CAPITAL CITY   SUNNY     22  -4  32 N5        30.83F
HARRISBURG     MOSUNNY   22   0  38 CALM      30.83F
YORK           SUNNY     20  -2  38 SW3       30.83S
$$

PAZ038>040-043-044-047-048-054-055-060>062-067>071-281800-
EASTERN PENNSYLVANIA

CITY           SKY/WX    TMP DP  RH WIND       PRES   REMARKS
SCRANTON       SUNNY     18  -1  43 CALM      30.76S
MOUNT POCONO   SUNNY     16  -2  45 NW7       30.65R WCI   6
ALLENTOWN      FLURRIES  20  -3  36 SW3       30.81F
QUAKERTOWN*    SUNNY     19  -2  38 CALM      30.81F
READING        SUNNY     22  -5  30 NW5       30.82F
LANCASTER      SUNNY     20  -3  36 W5        30.82F WCI  13
COATESVILLE    SUNNY     23   0  36 CALM      30.80F
POTTSTOWN      SUNNY     23  -3  32 N5        30.83F
BLUE BELL      SUNNY     25   1  36 W5        30.81F
DOYLESTOWN     SUNNY     21   0  39 W5        30.80F WCI  15
WILLOW GROVE   NOT AVBL
NORTH PHILA    MOSUNNY   26  -2  29 CALM      30.85F
PHILADELPHIA   MOSUNNY   25  -2  31 NW5       30.85F
$$


USA.gov is the U.S. government's official web portal to all federal, state and local government web resources and services.